DW5595 Weather Reports


Display with metric or nautical units.
time (UTC)temp
F
wind
direction
speed
MPH
gust
MPH
rain 1hr
in
rain 24hr
in
rain mn
in
humidity
%
barometer
mb
20260506204524 71 127 4.0 7.0 0.00 0.05 0.05 79 1011.9
20260506203026 71 205 1.0 12.0 0.00 0.05 0.05 79 1012.1
20260506201523 70 34 2.0 18.0 0.00 0.05 0.05 79 1012.6
20260506200015 70 153 2.0 9.0 0.00 0.05 0.05 79 1012.6
20260506194524 70 141 1.0 11.0 0.00 0.05 0.05 80 1012.9
20260506193028 70 130 3.0 9.0 0.00 0.05 0.05 82 1012.9
20260506191525 70 123 2.0 13.0 0.00 0.05 0.05 79 1012.7
20260506190022 69 80 2.0 7.0 0.00 0.05 0.05 82 1012.7
20260506184526 69 214 4.0 11.0 0.00 0.05 0.05 81 1012.7
20260506183018 68 225 2.0 8.0 0.00 0.05 0.05 85 1012.6
20260506180016 66 79 2.0 8.0 0.00 0.05 0.05 87 1012.7
20260506174512 66 126 3.0 8.0 0.00 0.05 0.05 88 1012.3
20260506173009 65 180 2.0 8.0 0.03 0.05 0.05 90 1013.1
20260506171507 64 265 1.0 5.0 0.05 0.05 0.05 90 1014.1
20260506164528 64 179 0.0 4.0 0.05 0.05 0.05 89 1014.5
20260506163022 66 78 0.0 2.0 0.02 0.02 0.02 85 1015.1
20260506161515 67 159 0.0 3.0 0.00 0.00 0.00 81 1015.0
20260506160011 68 315 1.0 3.0 0.00 0.00 0.00 76 1014.3
20260506154510 68 60 0.0 9.0 0.00 0.00 0.00 73 1013.9
20260506153007 68 153 4.0 11.0 0.00 0.00 0.00 72 1013.8
20260506151523 68 162 2.0 6.0 0.00 0.00 0.00 73 1013.4
20260506150022 67 216 3.0 12.0 0.00 0.00 0.00 75 1013.4
20260506143016 65 162 3.0 10.0 0.00 0.00 0.00 78 1013.3
20260506141512 65 140 1.0 4.0 0.00 0.00 0.00 76 1013.7
20260506140010 65 192 0.0 3.0 0.00 0.00 0.00 76 1013.7
20260506134507 64 329 1.0 7.0 0.00 0.00 0.00 77 1013.6
20260506133024 64 182 1.0 5.0 0.00 0.00 0.00 78 1013.0
20260506131532 63 146 0.0 7.0 0.00 0.00 0.00 79 1013.0
20260506130018 62 213 4.0 7.0 0.00 0.00 0.00 80 1013.0
20260506124528 61 242 0.0 7.0 0.00 0.00 0.00 81 1013.1
20260506123015 60 128 1.0 5.0 0.00 0.00 0.00 83 1013.1
20260506121510 60 168 2.0 5.0 0.00 0.00 0.00 83 1013.1
20260506120022 59 134 0.0 4.0 0.00 0.00 0.00 83 1013.6
20260506114524 59 144 0.0 2.0 0.00 0.00 0.00 1014.1
20260506113028 59 132 0.0 3.0 0.00 0.00 0.00 1013.4
20260506111522 58 156 0.0 3.0 0.00 0.00 0.00 84 1013.2
20260506110030 58 128 1.0 2.0 0.00 0.00 0.00 84 1013.0
20260506103020 59 120 0.0 4.0 0.00 0.00 0.00 82 1012.8
20260506101533 59 171 0.0 3.0 0.00 0.00 0.00 83 1012.7
20260506100024 59 154 1.0 7.0 0.00 0.00 0.00 82 1012.4
20260506094527 59 167 1.0 6.0 0.00 0.00 0.00 81 1012.9
20260506093031 59 149 1.0 7.0 0.00 0.00 0.00 80 1012.5
20260506090021 61 200 1.0 4.0 0.00 0.00 0.00 78 1012.9
20260506084515 60 140 2.0 7.0 0.00 0.00 0.00 79 1012.7
20260506081515 61 133 3.0 9.0 0.00 0.00 0.00 78 1013.1
20260506073021 62 149 0.0 2.0 0.00 0.00 0.00 77 1013.1
20260506071519 62 18 0.0 2.0 0.00 0.00 0.00 76 1013.2
20260506061526 64 205 4.0 11.0 0.00 0.00 0.00 71 1012.4
20260506044512 55 159 0.0 2.0 0.00 0.00 0.00 83 1013.6
20260506043028 55 173 0.0 0.0 0.00 0.00 0.00 82 1013.4
20260506041526 55 173 0.0 0.0 0.00 0.00 0.00 82 1013.5
20260506040023 56 173 0.0 0.0 0.00 0.00 0.00 82 1013.4
20260506034518 56 173 0.0 0.0 0.00 0.00 0.00 82 1013.3
20260506033025 57 181 0.0 0.0 0.00 0.00 0.00 81 1013.5
20260506031532 57 184 0.0 0.0 0.00 0.00 0.00 79 1013.5
20260506024529 58 184 0.0 0.0 0.00 0.00 0.00 1013.6
20260506023028 59 184 0.0 0.0 0.00 0.00 0.00 1013.6
20260506021529 60 184 0.0 0.0 0.00 0.00 0.00 73 1013.6
20260506020022 61 184 0.0 0.0 0.00 0.00 0.00 71 1013.8
20260506014523 62 184 0.0 0.0 0.00 0.00 0.00 65 1013.8
20260506013019 63 184 0.0 0.0 0.00 0.00 0.00 64 1013.5
20260506011527 64 184 0.0 0.0 0.00 0.00 0.00 60 1013.5
20260506010046 66 184 0.0 0.0 0.00 0.00 0.00 55 1013.4
20260506004528 68 184 0.0 0.0 0.00 0.00 0.00 53 1013.3
20260506003024 69 184 0.0 0.0 0.00 0.00 0.00 49 1013.3
20260506001526 71 161 0.0 3.0 0.00 0.00 0.00 47 1013.1
20260506000020 71 167 0.0 2.0 0.00 0.00 0.00 46 1013.2
20260505234519 73 146 0.0 4.0 0.00 0.00 0.00 43 1013.1
20260505231513 74 144 2.0 8.0 0.00 0.00 0.00 42 1012.7
20260505230008 74 148 2.0 10.0 0.00 0.00 0.00 40 1012.9
20260505224522 75 174 1.0 10.0 0.00 0.00 0.00 38 1013.0
20260505223021 75 157 3.0 11.0 0.00 0.00 0.00 39 1013.1
20260505221523 75 175 3.0 11.0 0.00 0.00 0.00 38 1012.9
20260505220025 75 167 3.0 10.0 0.00 0.00 0.00 38 1012.9
20260505214516 76 143 4.0 12.0 0.00 0.00 0.00 37 1013.0
20260505211526 76 128 3.0 14.0 0.00 0.00 0.00 38 1013.3
20260505210025 76 130 3.0 17.0 0.00 0.00 0.00 36 1013.3